Ord, NE

12:08 AM CDT on May 28, 2017 (GMT -0500)
Sharp

Weather History for KODX - August, 2013

Change the Weather History Date:

Tuesday, August 27, 2013

  Actual Average Record
Temperature  
Mean Temperature 81 °F 71 °F  
Max Temperature 95 °F 84 °F 95 °F (2013)
Min Temperature 66 °F 58 °F 53 °F (2006)
Degree Days  
Heating Degree Days 0 0  
Month to date heating degree days 0 0  
Since 1 June heating degree days 54 42  
Since 1 July heating degree days 7 5  
Cooling Degree Days 16 7  
Month to date cooling degree days 218 234  
Year to date cooling degree days 706 734  
Since 1 June cooling degree days 659 693  
Growing Degree Days 32 (Base 50)    
Moisture  
Dew Point 65 °F    
Average Humidity 58    
Maximum Humidity 79    
Minimum Humidity 36    
Precipitation  
Precipitation 0.00 in 0.08 in 2.25 in (1963)
Month to date precipitation 3.75 2.82  
Year to date precipitation 19.41 18.57  
Sea Level Pressure  
Sea Level Pressure 29.89 in    
Wind  
Wind Speed 6 mph (South)    
Max Wind Speed 16 mph    
Max Gust Speed 22 mph    
Visibility 10 miles    
Events      
T = Trace of Precipitation, MM = Missing Value Source: NWS Daily Summary

Daily Weather History Graph

Daily Weather History Graph

Search for Another Location

Airport or City:

Trip Planner

Search our weather history database for the weather conditions in past years. The results will help you decide how hot, cold, wet, or windy it might be!

Date:

Astronomy

Aug. 27, 2013 Rise Set
Actual Time 6:56 AM CDT 8:16 PM CDT
Civil Twilight 6:28 AM CDT 8:45 PM CDT
Nautical Twilight 5:53 AM CDT 9:19 PM CDT
Astronomical Twilight 5:16 AM CDT 9:56 PM CDT
Moon No Moon Rise 2:02 PM CDT (8/27)
Length of Visible Light 14h 17m
Length of Day
13h 19m
Waning Gibbous, 57% of the Moon is Illuminated
Aug 27
Waning Gibbous
Aug 28
Last Quarter
Sep 5
New
Sep 12
First Quarter
Sep 19
Full

Hourly Weather History & Observations

Time (CDT) Temp. Heat Index Dew Point Humidity Pressure Visibility Wind Dir Wind Speed Gust Speed Precip Events Conditions
12:53 AM 78.1 °F - 63.0 °F 60% 29.90 in 10.0 mi SSW 9.2 mph - N/A   Clear
1:53 AM 78.1 °F - 62.1 °F 58% 29.90 in 10.0 mi SSW 10.4 mph - N/A   Clear
2:53 AM 75.0 °F - 62.1 °F 64% 29.90 in 10.0 mi SSW 6.9 mph - N/A   Clear
3:53 AM 73.9 °F - 62.1 °F 66% 29.90 in 10.0 mi Calm Calm - N/A   Clear
4:53 AM 72.0 °F - 62.1 °F 71% 29.90 in 10.0 mi SE 3.5 mph - N/A   Clear
5:53 AM 71.1 °F - 62.1 °F 73% 29.90 in 10.0 mi South 4.6 mph - N/A   Clear
6:53 AM 69.1 °F - 62.1 °F 78% 29.91 in 10.0 mi SSE 5.8 mph - N/A   Clear
7:53 AM 72.0 °F - 62.1 °F 71% 29.91 in 10.0 mi South 5.8 mph - N/A   Clear
8:53 AM 75.0 °F - 63.0 °F 66% 29.91 in 10.0 mi South 4.6 mph - N/A   Clear
9:53 AM 79.0 °F - 63.0 °F 58% 29.91 in 10.0 mi SSW 6.9 mph - N/A   Clear
10:53 AM 82.9 °F 85.0 °F 66.0 °F 56% 29.91 in 10.0 mi SSW 12.7 mph - N/A   Clear
11:53 AM 86.0 °F 88.8 °F 66.9 °F 53% 29.91 in 10.0 mi SW 5.8 mph - N/A   Clear
12:53 PM 89.1 °F 92.9 °F 68.0 °F 50% 29.90 in 10.0 mi SSW 6.9 mph - N/A   Clear
1:53 PM 93.0 °F 97.4 °F 68.0 °F 44% 29.88 in 10.0 mi SSW 8.1 mph - N/A   Clear
2:53 PM 93.9 °F 96.1 °F 64.9 °F 38% 29.88 in 10.0 mi South 11.5 mph - N/A   Clear
3:53 PM 95.0 °F 97.9 °F 66.0 °F 38% 29.87 in 10.0 mi South 13.8 mph - N/A   Clear
4:53 PM 93.9 °F 97.5 °F 66.9 °F 41% 29.87 in 10.0 mi South 11.5 mph - N/A   Clear
5:53 PM 93.9 °F 95.2 °F 63.0 °F 36% 29.86 in 10.0 mi South 9.2 mph - N/A   Clear
6:53 PM 91.9 °F 94.5 °F 66.0 °F 42% 29.86 in 10.0 mi South 6.9 mph - N/A   Clear
7:53 PM 87.1 °F 91.3 °F 69.1 °F 55% 29.86 in 10.0 mi SE 4.6 mph - N/A   Clear
8:53 PM 79.0 °F - 71.1 °F 77% 29.88 in 10.0 mi ESE 3.5 mph - N/A   Clear
9:53 PM 79.0 °F - 69.1 °F 72% 29.89 in 10.0 mi SE 4.6 mph - N/A   Clear
10:53 PM 75.9 °F - 68.0 °F 76% 29.90 in 10.0 mi Calm Calm - N/A   Clear
11:53 PM 73.9 °F - 64.9 °F 73% 29.91 in 10.0 mi Calm Calm - N/A   Clear